This demonstration page uses our WeatherBlox Daily Observations layout. Learn more.

Left ArrowRight Arrow

38.80484, -77.04692

Hourly Observations for September 4, 2021

Temp ( °F °C ) Dew Point ( °F °C ) Humidity (%) Winds ( mph kmh ) Pressure ( in mb ) Visibility ( mi km ) Precip ( " mm )
12:52 am 00:52 Mostly Clear 68 20 58 14.4 70 70 N N/A 30.10 1019 10 16 N/A
1:52 am 01:52 Partly Cloudy 67 19.4 58 14.4 73 73 N N/A 30.09 1019 10 16 N/A
2:52 am 02:52 Mostly Clear 65 18.3 58 14.4 78 78 SW 3 6 30.08 1019 10 16 N/A
3:52 am 03:52 Partly Cloudy 64 17.8 58 14.4 81 81 N 3 6 30.08 1019 10 16 N/A
4:52 am 04:52 Mostly Cloudy 63 17.2 57 13.9 81 81 N N/A 30.08 1019 10 16 N/A
5:52 am 05:52 Mostly Cloudy 64 17.8 58 14.4 81 81 N N/A 30.09 1019 10 16 N/A
6:52 am 06:52 Mostly Cloudy 63 17.2 58 14.4 84 84 N 5 7 30.10 1019 10 16 N/A
7:52 am 07:52 Mostly Cloudy 65 18.3 58 14.4 78 78 N 5 7 30.10 1019 10 16 N/A
8:52 am 08:52 Mostly Cloudy 67 19.4 60 15.6 79 79 N N/A 30.09 1019 10 16 N/A
9:52 am 09:52 Mostly Cloudy 70 21.1 59 15 68 68 N N/A 30.10 1019 10 16 N/A
10:52 am 10:52 Mostly Cloudy 73 22.8 52 11.1 48 48 N N/A 30.09 1019 10 16 N/A
11:52 am 11:52 Mostly Cloudy 74 23.3 56 13.3 54 54 SSE 7 11 30.08 1019 10 16 N/A
12:52 pm 12:52 Mostly Cloudy 74 23.3 58 14.4 57 57 S 9 15 30.06 1018 10 16 N/A
1:52 pm 13:52 Mostly Cloudy 76 24.4 57 13.9 52 52 SSE 6 9 30.03 1017 10 16 N/A
2:52 pm 14:52 Partly Cloudy 78 25.6 59 15 52 52 S 9 15 30.02 1017 10 16 N/A
3:52 pm 15:52 Mostly Sunny 80 26.7 57 13.9 45 45 VRB 5 7 29.98 1015 10 16 N/A
4:52 pm 16:52 Mostly Sunny 79 26.1 59 15 50 50 VRB 6 9 29.97 1015 10 16 N/A
5:52 pm 17:52 Partly Cloudy 79 26.1 59 15 50 50 SSW 8 13 29.97 1015 10 16 N/A
6:52 pm 18:52 Mostly Sunny 76 24.4 61 16.1 60 60 S 10 17 29.96 1015 10 16 N/A
7:52 pm 19:52 Mostly Clear 73 22.8 62 16.7 69 69 S 7 11 29.97 1015 10 16 N/A
8:52 pm 20:52 Mostly Clear 72 22.2 63 17.2 73 73 SSE 5 7 29.98 1015 10 16 N/A
9:52 pm 21:52 Mostly Clear 71 21.7 62 16.7 73 73 SSE 8 13 29.98 1015 10 16 N/A
10:52 pm 22:52 Mostly Clear 70 21.1 62 16.7 76 76 S 7 11 29.96 1015 10 16 N/A
11:52 pm 23:52 Mostly Clear 69 20.6 63 17.2 81 81 S 9 15 29.95 1014 10 16 N/A

Powered by AerisWeather